Location: Lafig�re
(44.4503°N, 4.0357°E)
Time: 00:07:12
(UTC+00:00)

ARGOS - Pass Details

Date: 24 January 2021
Orbit: 821 x 834 km, 98.4° (Epoch: 03 March)

Event Time Altitude Azimuth Distance (km) Brightness Sun altitude
Rises 19:35:44 0° 191° (SSW) 3,340 6.4 -30.8°
Reaches altitude 10° 19:38:18 10° 201° (SSW) 2,413 5.7 -31.3°
Maximum altitude 19:43:03 33° 264° (W) 1,370 4.7 -32.1°
Drops below altitude 10° 19:47:52 10° 328° (NNW) 2,435 6.0 -33.0°
Sets 19:50:29 0° 338° (NNW) 3,375 6.7 -33.4°
